HADES-ICM

Last updated on Thu Mar 05 2026 00:03:22 GMT+0000 (Coordinated Universal Time)

1 63492U 25052BN 26063.16697459 .00178886 00000+0 26029-2 0 9990 2 63492 97.3959 323.4203 0008433 121.7965 238.4111 15.55090761 54282
UTC large
Height (km)
Speed (km/s)
/
Latitude / Longitude
Inclination (degrees)
Orbital Period (minutes)
Azimuth
Elevation
Range (km)
Doppler Factor

Next 0 passes for location: London (51.5072 / 0.1276)

Sorry there are no passes over London.